Location: Goheenville
(40.9070°N, 79.3720°W)
Time: 07:31:17
(UTC-05:00)

Daily predictions for brighter satellites

Satellite Brightness Start Highest point End
(mag) Time Altitude Azimuth Time Altitude Azimuth Time Altitude Azimuth
Cosmos 2360 Rocket 2.8 18:22:13 10° N 18:27:26 37° ENE 18:32:39 10° SE
Cosmos 1980 Rocket 4.5 18:23:08 10° NW 18:28:04 31° WSW 18:33:00 10° SSW
Cosmos 676 Rocket 4.1 18:25:49 10° S 18:30:52 54° ESE 18:35:57 10° NNE
DNEPR-1 R/B 3.6 18:27:16 10° NW 18:31:32 83° WSW 18:35:48 10° SSE
Nadezhda 1 Rocket 4.1 18:32:19 10° N 18:38:25 83° W 18:44:29 10° S
Meteor 1-11 Rocket 4.3 18:33:26 10° SSE 18:38:39 36° E 18:43:59 10° NNE
Cosmos 1461 3.3 18:40:15 10° NW 18:44:14 64° WSW 18:48:18 10° SSE
DELTA 2 R/B (1) 3.9 18:39:22 10° W 18:44:57 65° SSW 18:50:30 10° ESE
Cosmos 1140 Rocket 3.8 18:41:08 10° S 18:45:58 44° ESE 18:50:52 10° NNE
Cosmos 1602 4.0 18:45:29 10° SSE 18:49:10 43° E 18:52:53 10° NNE
Resurs 01 Rocket 2.5 18:45:49 10° SE 18:49:35 28° ENE 18:53:22 10° N
Cosmos 1300 Rocket 3.8 18:46:29 10° SSE 18:50:40 45° E 18:54:55 10° NNE
Cosmos 2292 Rocket 4.3 18:48:33 10° S 18:53:38 81° E 19:00:35 10° N
Cosmos 614 Rocket 4.4 18:49:11 10° S 18:53:52 39° ESE 18:58:34 10° NE
Abrixas rocket 4.0 18:53:16 10° S 18:55:38 18° SE 18:56:52 15° ESE
COSMO-SKYMED 1 3.7 18:51:29 10° N 18:55:40 47° WNW 18:59:49 10° SW
Cosmos 1833 4.2 18:50:10 10° SSW 18:55:50 72° ESE 19:01:29 10° NNE
ALOS 2.5 18:53:02 10° SE 18:57:29 46° ENE 19:01:58 10° N
Cosmos 2181 Rocket 4.0 18:52:13 10° N 18:58:25 62° E 19:04:41 10° SSE
Spot 2 Rocket 3.9 18:57:14 10° SE 19:01:55 40° ENE 19:06:38 10° N
USA 229 DEB 4.5 18:55:34 10° NNW 19:01:59 35° NE 19:07:02 16° E
USA 229 4.5 18:55:40 10° NNW 19:02:05 35° NE 19:07:06 16° E
Cosmos 2333 Rocket 3.7 18:58:35 10° N 19:02:20 17° NE 19:04:11 15° ENE
SL-16 R/B 3.5 18:58:49 10° NW 19:04:11 45° WSW 19:09:32 10° S
FREGAT/IRIS 2.6 19:02:03 10° SSE 19:05:08 90° W 19:08:13 10° NNW
Helios 1A 4.2 19:04:17 18° E 19:05:42 22° ENE 19:08:53 10° NNE
Cosmos 1340 2.6 19:03:02 10° N 19:06:51 89° NE 19:10:38 10° S
Resurs 1-3 4.1 19:03:24 10° SE 19:07:24 36° ENE 19:11:26 10° N
Cosmos 1709 Rocket 4.1 19:06:48 10° S 19:13:02 83° W 19:19:14 10° N
Cosmos 1850 Rocket 4.2 19:08:00 10° S 19:13:05 50° ESE 19:18:15 10° NNE
Cosmos 2074 Rocket 4.3 19:07:23 10° SSE 19:13:12 43° E 19:19:04 10° NNE
Cosmos 2184 Rocket 4.3 19:10:15 10° SSE 19:16:09 43° E 19:22:00 10° NNE
Helios 1B rocket 3.4 19:18:13 26° E 19:18:24 26° E 19:21:54 10° SSE
Envisat 4.3 19:18:30 19° ENE 19:18:30 19° ENE 19:22:03 10° NNE
FengYun 1-2 T 4.1 19:14:06 10° SSE 19:19:32 74° ENE 19:25:03 10° N
NOSS 8 (H) 4.5 19:16:55 10° SSW 19:20:13 55° ESE 19:21:50 27° NE
Cosmos 2322 Rocket 4.1 19:15:36 10° NW 19:20:29 31° WSW 19:25:21 10° SSW
Cosmos 1954 Rocket 4.4 19:15:33 10° SSW 19:20:41 66° WNW 19:25:55 10° NNE
Okean 2 4.4 19:18:41 10° NNE 19:22:00 26° ENE 19:22:00 26° ENE
HJ-1C 3.3 19:18:54 10° SSE 19:22:16 86° E 19:25:39 10° N
SJ-6B 3.5 19:19:40 10° S 19:23:38 58° W 19:27:32 10° NNW
Tiangong 2 3.4 19:22:13 10° W 19:24:32 19° SSW 19:26:32 12° SSE
Okean 1 Rocket 3.0 19:20:57 10° S 19:25:26 84° E 19:29:57 10° N
Genesis I 3.3 19:22:51 10° NNW 19:26:44 54° NE 19:28:05 35° ESE
FENGYUN 3A 3.6 19:21:58 10° SSE 19:27:22 88° ENE 19:32:50 10° NNW
Meteor 1-19 Rocket 4.3 19:23:01 10° NNW 19:28:44 82° W 19:34:30 10° S
SAR-Lupe-4 3.8 19:30:26 42° E 19:30:51 45° ENE 19:34:17 10° N
Gbstr 26 Del rocket 2.6 19:31:43 10° WSW 19:35:31 76° NW 19:36:53 37° NE
Cosmos 2322 4.0 19:31:20 10° NNW 19:37:03 71° WSW 19:42:42 10° SSE
Cosmos 1238 Rocket 3.7 19:35:07 10° NNW 19:37:53 35° W 19:40:38 10° SSW
Cosmos 2285 Rocket 4.1 19:38:08 10° NNW 19:44:29 56° ENE 19:47:50 28° SE
CZ-2D R/B 3.0 19:43:32 38° SSE 19:44:53 75° ENE 19:48:42 10° N
GEOS 3 Rocket 3.7 19:39:43 10° NNE 19:44:59 82° NW 19:50:16 10° SW
Cosmos 2154 Rocket 4.4 19:39:22 10° SSE 19:45:08 39° E 19:50:56 10° NNE
Cosmos 1025 Rocket 2.9 19:41:11 10° N 19:45:36 75° E 19:48:41 19° SSE
GPS 2-04 Rocket1 3.9 19:42:24 10° SW 19:46:14 31° SSE 19:46:29 31° SSE
Cosmos 405 Rocket 4.2 19:42:59 10° N 19:45:01 24° NNE 19:45:01 24° NNE
H-2A R/B 2.9 19:46:29 10° S 19:50:10 67° W 19:53:54 10° NNW
Meteor 2-13 Rocket 4.4 19:45:07 10° SSE 19:50:58 54° E 19:56:54 10° NNE
Cosmos 1536 3.4 19:47:12 10° SSW 19:51:08 57° W 19:55:04 10° N
Okean 1-7 Rocket 3.9 19:47:16 10° NNW 19:51:48 69° W 19:56:14 10° S
COSMOS 2428 2.6 19:46:43 10° NNW 19:52:27 82° ENE 19:55:38 27° SSE
Meteor 1-23 Rocket 4.2 19:46:39 10° N 19:52:30 88° W 19:58:14 10° S
Cosmos 2237 4.3 19:46:58 10° NNW 19:52:42 79° WSW 19:57:28 15° SSE
Cosmos 2333 4.1 19:48:04 10° NNW 19:53:49 74° ENE 19:56:21 35° SE
Meteor 2-4 Rocket 3.9 19:49:18 10° NNW 19:54:49 68° W 20:00:09 10° S
Cosmos 2237 Rocket 3.1 19:51:25 10° N 19:55:53 30° NE 19:55:53 30° NE
NOSS 0 Rocket 4.0 20:02:04 10° NNW 20:08:05 53° ENE 20:08:25 52° ENE
Cosmos 2360 Rocket 3.9 20:06:23 10° NW 20:11:19 31° WSW 20:16:14 10° SSW
Cosmos 2219 3.6 20:06:59 10° SW 20:12:41 65° WNW 20:18:25 10° NNE
Cosmos 2219 Rocket 2.0 20:07:52 10° NNW 20:13:29 68° ENE 20:13:35 68° ENE
Resurs 01 Rocket 3.7 20:22:19 10° SSW 20:26:00 26° W 20:29:43 10° NW
SL-16 R/B 4.0 20:25:11 10° N 20:27:19 19° NNE 20:27:19 19° NNE
ATLAS CENTAUR R/B 4.3 20:30:08 10° SW 20:30:46 13° SW 20:30:46 13° SW
BREEZE-M DEB (TANK) 4.1 20:29:54 10° WNW 20:33:50 81° SSW 20:35:01 63° SE
Cosmos 2333 Rocket 2.6 20:41:32 10° NNW 20:46:14 60° NW 20:46:14 60° NW
USA 229 DEB 4.2 20:46:19 10° NW 20:53:18 59° WSW 20:54:32 52° SSW
USA 229 4.2 20:46:25 10° NW 20:53:25 59° WSW 20:54:36 53° SSW
Envisat 4.2 20:58:42 38° NW 20:58:42 38° NW 21:02:04 10° NNW
NOSS 3-1 (A) 4.2 20:58:39 10° NNW 21:04:58 59° N 21:04:58 59° N
ATLAS 2AS CENTAUR R/B 4.3 21:04:52 10° NNW 21:10:18 27° NNE 21:10:18 27° NNE
NOSS 3-1 (C) 4.3 21:18:08 10° NW 21:24:23 63° NW 21:24:23 63° NW
Cosmos 2237 Rocket 4.2 21:35:19 10° NW 21:37:44 24° NW 21:37:44 24° NW
